Regional Weather Roundup
Issued by NWS Albany, NY

Home | Current Version | Previous Version | Text Only | Print | Product List | Glossary On
Versions: 1 2 3 4 5 6 7 8 9 10 11 12 13 14 15 16 17 18 19 20 21 22 23 24 25 26 27 28
000
ASUS41 KALY 220610
RWRALY

NEW YORK STATE HOURLY WEATHER ROUNDUP
NATIONAL WEATHER SERVICE ALBANY NY
200 AM EDT FRI JUL 22 2016

NOTE: "FAIR" INDICATES FEW OR NO CLOUDS BELOW 12,000 FEET WITH NO
SIGNIFICANT WEATHER AND/OR NO OBSTRUCTIONS TO VISIBILITY.

NYZ032-033-038>043-046>054-057>066-NYZ062>081-082-084-220700-
EAST


CITY           SKY/WX    TMP DP  RH WIND       PRES   REMARKS
ALBANY         PTCLDY    72  59  63 S8        29.92F
GLENS FALLS    CLEAR     71  59  65 S8        29.89F
POUGHKEEPSIE   CLEAR     76  62  62 S5        29.97F
NEWBURGH       CLEAR     75  64  69 W16       30.01S
MONTGOMERY     CLEAR     69  61  75 SW5       29.99S
WHITE PLAINS   PTCLDY    75  64  68 MISG      30.01F
ISLIP          CLOUDY    74  67  78 SW12      30.01F
NEW YORK CITY  MOCLDY    78  66  66 SW12      30.01F
CENTRAL PARK   PTCLDY    76  65  68 SW6       30.04F
$$

NYZ005>009-017-018-044>046-055-056-220700-
CENTRAL


CITY           SKY/WX    TMP DP  RH WIND       PRES   REMARKS
FULTON         CLOUDY    79  58  48 S8        29.88F
SYRACUSE       CLOUDY    80  57  45 S9        29.88F
ROME           CLOUDY    71  57  61 E5        29.92F
ELMIRA         MOCLDY    65  56  72 CALM      29.98R
BINGHAMTON     PTCLDY    71  51  49 SW8       30.01S
MONTICELLO     CLEAR     63  57  82 CALM      30.05S
$$

NYZ026>034-041>043-087-220700-
NORTH


CITY           SKY/WX    TMP DP  RH WIND       PRES   REMARKS
WATERTOWN      CLOUDY    79  58  48 SW15      29.83F
FORT DRUM      NOT AVBL
MASSENA        CLOUDY    79  58  48 SW17G26   29.77F
SARANAC LAKE   MOCLDY    70  55  59 SW7       29.88F
PLATTSBURGH    CLEAR     72  61  68 S7        29.79F
$$

NYZ001>004-010>016-019>021-085-220700-
WEST


CITY           SKY/WX    TMP DP  RH WIND       PRES   REMARKS
NIAGARA FALLS  CLOUDY    81  68  64 SW14      29.89F
BUFFALO        PTCLDY    80  67  64 SW18      29.91F
DUNKIRK        PTCLDY    79  67  66 SW12      29.95F
JAMESTOWN      CLEAR     73  63  68 SW12      30.03F
WELLSVILLE     CLEAR     73  61  65 SW8       30.06S
ROCHESTER      PTCLDY    77  64  64 SW9       29.89F
PENN YAN       CLEAR     78  58  49 SW13      29.95S
$$

             KEY
       WCI = WIND CHILL INDEX
       VSB = VISIBILITY
       HX  = HEAT INDEX
$$




USA.gov is the U.S. government's official web portal to all federal, state and local government web resources and services.